Regional Weather Roundup
Issued by NWS Grand Forks, ND

Home | Current Version | Previous Version | Text Only | Print | Product List | Glossary Off
Versions: 1 2 3 4 5 6 7 8 9 10 11 12 13 14 15 16 17 18 19 20 21 22 23 24 25 26 27 28 29 30 31 32 33 34 35 36 37 38 39 40 41 42 43 44 45 46 47 48 49 50

000
ASUS43 KFGF 241010
RWRFGF
PRAIRIE TO PINES  WEATHER ROUNDUP
NATIONAL WEATHER SERVICE EASTERN NORTH DAKOTA/GRAND FORKS ND
500 AM CDT FRI MAR 24 2017

 **SATELLITE DATA USED TO AUGMENT SKY COVER AT AUTOMATED STATIONS**
 *****  WEATHER ACROSS EASTERN NORTH DAKOTA  *****

CITY           SKY/WX    TMP DP  RH WIND       PRES   REMARKS
GRAND FORKS    FAIR      32  31  96 N13       30.00R WCI  22
GRAND FRKS AFB FAIR      31  30  96 N13       30.01R WCI  21
DEVILS LAKE    FAIR      28  26  92 NE8       30.04R WCI  20
FARGO          CLOUDY    34  34 100 N5        29.95R FOG
WAHPETON ARPT    N/A     34  32  93 N3        29.94R
$$

 ***** WEATHER ACROSS CENTRAL AND WESTERN NORTH DAKOTA  *****

CITY           SKY/WX    TMP DP  RH WIND       PRES   REMARKS
BISMARCK       FAIR      30  28  92 NW3       30.01R FOG
MINOT          FAIR      26  23  88 CALM      30.04R
JAMESTOWN      FAIR      32  30  92 N9        29.97R WCI  24
MINOT AFB      FAIR      28  24  88 N5        30.04R WCI  22
GARRISON         N/A     28  26  92 N6        30.02S WCI  22
WILLISTON      FAIR      26  24  92 CALM      30.05R
DICKINSON      FOG       32  32 100 CALM      29.98R VSB 1/4
HETTINGER      FAIR      32  30  92 NW6       30.00R
$$

 *****  OTHER AIRPORT OBSERVATIONS IN OUR AREA  *****

CITY           SKY/WX    TMP DP  RH WIND       PRES   REMARKS
WALHALLA       NOT AVBL
GRAFTON AIRPOR FAIR      28  28 100 N15       30.05R WCI  17
VALLEY CITY AR FAIR      32  32 100 N12       29.96R WCI  23
CANDO          NOT AVBL
CAVALIER APRT  NOT AVBL
GWINNER        FOG       34  34 100 MISG      29.94R VSB 1/2
SHEYENNE NWR     N/A     34  34 100 NW2       29.95S
ROLLA          CLOUDY    27  27 100 NE7       30.07R WCI  19
 ***** THE ABOVE OBSERVATIONS ARE NON NWS ARE NOT QUALITY
       CONTROLLED AND MAY MIS-REPORT RAIN FOR SNOW...
$$

  *****  WEATHER ACROSS NORTHERN MINNESOTA  *****

CITY           SKY/WX    TMP DP  RH WIND       PRES   REMARKS
FLAG ISLAND    FAIR      30  27  86 NW12      29.97R WCI  21
WARROAD        FAIR      30  27  86 NW9       29.97R WCI  22
ROSEAU         FAIR      30  27  86 N10       29.98R WCI  21
HALLOCK        FAIR      30  27  86 N9        30.03R WCI  22
THF RVR FALLS  CLOUDY    33  31  92 N13G22    29.97R WCI  24
BAUDETTE       FAIR      32  30  92 NW9       29.93R WCI  24
WASKISH        NOT AVBL
CROOKSTON      FAIR      32  30  93 N9        29.98R FOG     WCI  24
GREENBUSH NDAW   N/A     30  27  86 N9          N/A  WCI  22
$$
  *****  WEATHER ACROSS CENTRAL AND WEST MINNESOTA  *****

CITY           SKY/WX    TMP DP  RH WIND       PRES   REMARKS
FOSSTON        CLOUDY    30  30 100 N15       29.94R FOG     WCI  19
BEMIDJI        NOT AVBL
PARK RAPIDS    CLOUDY    34  31  88 CALM      29.90S FOG
ELBOW LAKE     CLOUDY    33  33 100 CALM      29.92R FOG
WADENA         CLOUDY    32  32 100 N5        29.90R FOG
DETROIT LAKES  CLOUDY    34  32  93 CALM      29.93R FOG
MOORHEAD       CLOUDY    34  32  93 N3        29.95R FOG
FERGUS FALLS   CLOUDY    34  34 100 N5        29.96R FOG
MORRIS MN      MOCLDY    36  34  93 N9        29.89R FOG
STAPLES        CLOUDY    30  30 100 NW6       29.90R FOG     WCI  24
$$
  *****  WEATHER ELSEWHERE ACROSS MINNESOTA  *****

CITY           SKY/WX    TMP DP  RH WIND       PRES   REMARKS
DULUTH         DRIZZLE   33  32  96 N7        29.87S FOG
INTRNTL FALLS  CLOUDY    32  30  92 NW5       29.91R FOG
ELY            CLOUDY    32  32 100 CALM      29.89R FOG
CLOQUET        CLOUDY    34  30  86 N5        29.87F FOG
WHEATON        CLOUDY    34  34 100 NW3       29.95R FOG
BRAINERD       CLOUDY    33  32  96 N5        29.89S FOG
HIBBING        CLOUDY    31  31 100 CALM      29.88F FOG
ALEXANDRIA     CLOUDY    34  33  96 N8        29.89R FOG
SAINT CLOUD    CLOUDY    34  34 100 N8        29.88R FOG
MINNEAPOLIS    CLOUDY    39  36  89 N7        29.85R
$$

  *****  WEATHER ACROSS SOUTH DAKOTA  *****

CITY           SKY/WX    TMP DP  RH WIND       PRES   REMARKS
SIOUX FALLS    CLOUDY    40  38  93 N12       29.83R
BROOKINGS      CLOUDY    35  34  96 N8        29.85R
WATERTOWN      CLOUDY    33  33 100 N12       29.89R FOG     WCI  24
HURON          CLOUDY    37  37 100 N13       29.90R
SISSETON         N/A     34  34 100 N7        29.93R
ABERDEEN       CLOUDY    35  32  88 N7        29.96R FOG
MITCHELL       CLOUDY    39  38  96 N13       29.88R
PIERRE         CLOUDY    41  36  82 N14       29.95R
MOBRIDGE       FAIR      37  32  82 NW7       29.94R
RAPID CITY     CLOUDY    42  37  82 NW8       30.00R
$$

  *****  SOME WEATHER IN NEARBY STATES *****

CITY           SKY/WX    TMP DP  RH WIND       PRES   REMARKS
GLASGOW MT     FAIR      33  27  78 N9        29.98R
GREAT FALLS MT FAIR      28  17  63 CALM      30.01S
CHEYENNE WY    FLURRIES  33  31  92 N21G30    29.96R WCI  21
SCOTTSBLUFF NE CLOUDY    42  37  82 N18G25    29.96R
OMAHA NE       CLOUDY    54  50  86 NW7       29.74F
DES MOINES IA  CLOUDY    59  46  62 S8        29.75S
DAVENPORT IA   FAIR      53  45  74 S17       29.85S
CHICAGO IL     CLOUDY    49  39  68 S9        29.90F
EAU CLAIRE WI  CLOUDY    38  38 100 N3        29.82F FOG
LA CROSSE WI   CLOUDY    41  40  96 CALM      29.83F
$$

  *****  SOME NATIONAL WEATHER *****

CITY           SKY/WX    TMP DP  RH WIND       PRES   REMARKS
LA GUARDIA NY  CLOUDY    38  19  46 SW8       30.49R
RALEIGH NC     FAIR      37  29  72 S5        30.52S
ATLANTA GA     CLOUDY    57  44  62 SE12      30.39S
NEW ORLEANS LA MOCLDY    68  65  90 SE14      30.14F
OKLAHOMA CITY  CLOUDY    66  50  56 S26G36    29.75S
ALBUQUERQUE NM CLOUDY    44  29  55 SW18G26   29.83F
SALT LAKE CITY FAIR      35  33  92 SE7       30.16S
LOS ANGELES CA FAIR      53  51  93 NE6       30.23F
BOISE ID       FAIR      44  25  47 SE16      30.03F
SEATTLE WA     CLOUDY    46  44  93 E5        29.82F
$$

*** WEATHER ACROSS MANITOBA...SASKATCHEWAN AND ONTARIO ***
                ***ONTARIO***

CITY           SKY/WX    TMP DP  RH WIND       PRES   REMARKS
GERALDTON      CLOUDY    30  28  93 W6        29.83S WCI  24
THUNDER BAY    CLOUDY    32  32 100 SW3       29.89R FOG
SIOUX LOOKOUT  CLOUDY    34  28  80 N6        29.90R
TORONTO        SHOWER    34  30  86 VRB2      30.12S
BIG TROUT LK   FLURRIES   3   0  85 N10G21    30.11R WCI -12
PICKLE LAKE    NOT AVBL
DRYDEN         CLOUDY    34  30  86 N7        29.91R
KENORA         PTCLDY    28  23  80 N8        29.96R WCI  20
$$
                *** MANITOBA***

CITY           SKY/WX    TMP DP  RH WIND       PRES   REMARKS
BRANDON        MOCLDY    25  19  80 E7        30.11R WCI  17
DAUPHIN        CLOUDY    27  23  86 N9        30.11R WCI  17
ISLAND LAKE    CLEAR      1  -2  85 NE8       30.21R WCI -12
PILOT MOUND      N/A     25  21  86 NE3         N/A
THE PAS        FLURRIES  21  14  73 E9G17     30.18R WCI  11
THOMPSON       CLEAR    -11 -18  70 NE7       30.32R WCI -26
WINNIPEG       CLOUDY    28  25  86 N10       30.08R WCI  19
LYNN LAKE      CLEAR    -11 -15  84 E5        30.28R WCI -23
CHURCHILL      CLEAR    -18 -24  76 NW13      30.37R WCI -41
GILLAM         CLEAR    -22 -27  76 NW8       30.34R WCI -41
$$
                ***SASKATCHEWAN***

CITY           SKY/WX    TMP DP  RH WIND       PRES   REMARKS
ESTEVAN        PTCLDY    27  23  86 E9        30.05R WCI  17
KINDERSLEY     FOG       23  23 100 NE7       30.01S VSB 3/8 WCI  15
LLOYDMINSTER   FOG       21  21 100 S7        30.03R VSB 1/4 WCI  13
PRINCE ALBERT  CLOUDY    27  21  80 SE6       30.11R WCI  20
REGINA         CLEAR     25  21  86 NE5       30.03S WCI  19
YORKTON        CLEAR     18  16  93 NE5       30.07S WCI  11
N. BATTLEFORD  CLOUDY    27  27 100 SE8       30.08R WCI  18
LA RONGE       CLOUDY    25  19  80 SE6       30.13R WCI  18
SASKATOON      PTCLDY    25  19  80 SE8       30.09S WCI  16
SWIFT CURRENT  PTCLDY    27  25  93 E12       29.97S WCI  16
$$
NOTE: THESE ARE AUTOMATED STATIONS WITH LIMITED QUALITY CONTROL
      "FAIR" INDICATES FEW OR NO CLOUDS BELOW 12,000 FEET WITH NO
      SIGNIFICANT WEATHER AND/OR OBSTRUCTIONS TO VISIBILITY.
      SKY/WX - SKY CONDITION AND SIGNIFICANT WEATHER.
      TMP - AIR TEMPERATURE.    DP   - DEWPOINT TEMPERATURE.
      RH  - RELATIVE HUMIDITY.  PRES - PRESSURE.
      HX  - HEAT INDEX.         WCI  - WIND CHILL INDEX.
$



USA.gov is the U.S. government's official web portal to all federal, state and local government web resources and services.